Details From EGPD - Aberdeen Dyce
To EGPC - Wick
Flight Number -
Tags generated
Created
Modified
Stats Distance 81 nm / 149 km
Max Altitude 0 ft / 0 m
Waypoints 2
Social Downloads 0
Likes 0
Share VATSIM

Download

Looking for another format? Having issues loading an existing format? Contact us
Advertisement - Login to hide

Notes

Basic altitude profile: - Ascent Rate: 2500ft/min - Ascent Speed: 250kts - Cruise Altitude: 35000ft - Cruise Speed: 420kts - Descent Rate: 1500ft/min - Descent Speed: 250kts Options: - Use NATs: no - Use PACOTS: no - Use low airways: no - Use high airways: no

Route

EGPD EGPC

ID Type Via Altitude Latitude Longitude Leg Dist Tot Dist Heading (true) Name
O EGPD APT - 0 ft / 0 m 57.20362˚ -2.19902˚ - 0 nm - Aberdeen Dyce
O EGPC APT - 0 ft / 0 m 58.45787˚ -3.09298˚ 80 nm 80 nm 340° / 339° Wick

Altitude Profile

Advertisement - Login to hide

EGPD

Details ICAO EGPD (ABZ)
Name Aberdeen Dyce
Region United Kingdom
Timezone Europe/London (UTC+1.0)
Stats Elevation 215 ft / 66 m (AMSL)
Location 57.203623° -2.199018°
Runways 4
Magnetic Variation 1.948° W

METAR

EGPD 210320Z AUTO 16010KT 4500 HZ BKN003 09/08 Q1018 TEMPO 2000

Decode

TAF

TAF AMD EGPD 210324Z 2103/2124 17012KT 9999 FEW040 TEMPO 2103/2115 2500 BR BKN001 BECMG 2115/2118 33012KT BKN010 TEMPO 2118/2124 2500 -RADZ BR BKN002

Decode

Departure Runways

ID Width Length Bearing (true) Bearing (mag) Surface Threshold Offset Overrun Length
05 151 ft / 46 m 1,555 ft / 474 m 46.38° 48.33° Concrete 0 ft / 0 m 0 ft / 0 m
14 118 ft / 36 m 1,901 ft / 579 m 139.16° 141.11° Asphalt 0 ft / 0 m 0 ft / 0 m
16 151 ft / 46 m 6,006 ft / 1,831 m 158.21° 160.16° Asphalt 0 ft / 0 m 0 ft / 0 m
18 75 ft / 23 m 896 ft / 273 m 179.48° 181.43° Asphalt 0 ft / 0 m 0 ft / 0 m
23 151 ft / 46 m 1,555 ft / 474 m 226.38° 228.33° Concrete 0 ft / 0 m 0 ft / 0 m
32 118 ft / 36 m 1,901 ft / 579 m 319.16° 321.11° Asphalt 0 ft / 0 m 0 ft / 0 m
34 151 ft / 46 m 6,006 ft / 1,831 m 338.22° 340.17° Asphalt 0 ft / 0 m 0 ft / 0 m
36 75 ft / 23 m 896 ft / 273 m 359.48° 1.43° Asphalt 0 ft / 0 m 0 ft / 0 m

EGPC

Details ICAO EGPC (WIC)
Name Wick
Region United Kingdom
Timezone Europe/London (UTC+1.0)
Stats Elevation 126 ft / 38 m (AMSL)
Location 58.457866° -3.092981°
Runways 2
Magnetic Variation 2.549° W

METAR

EGPC 210320Z AUTO 34002KT 4600 DZ BKN001/// 11/10 Q1016

Decode

TAF

Not found

Destination Runways

ID Width Length Bearing (true) Bearing (mag) Surface Threshold Offset Overrun Length
08 148 ft / 45 m 3,390 ft / 1,033 m 75.45° 78.00° Asphalt 0 ft / 0 m 0 ft / 0 m
13 148 ft / 45 m 5,978 ft / 1,822 m 127.02° 129.57° Asphalt 814 ft / 248 m 0 ft / 0 m
26 148 ft / 45 m 3,390 ft / 1,033 m 255.46° 258.01° Asphalt 0 ft / 0 m 0 ft / 0 m
31 148 ft / 45 m 5,978 ft / 1,822 m 307.04° 309.59° Asphalt 1,010 ft / 308 m 0 ft / 0 m

Popular Alternatives